Theta_e
303 299 297 300 304 305 301 299 298 302 303 299 296 295 299 302 300 300 300 302 302 304 312 317 322 323 323 323 323 323 324 325 325 325 324 324 324 325 326 326 325 324 324 324
296 295 302 305 304 303 303 300 299 298 299 298 296 296 299 301 301 301 301 301 302 303 303 312 316 320 321 322 322 322 323 324 325 326 326 326 325 324 326 326 325 325 325 325
295 298 303 302 301 300 300 300 298 297 296 295 293 291 295 299 302 302 304 304 303 304 305 304 312 317 319 320 322 324 323 324 325 326 326 323 322 321 321 322 324 325 325 325
297 301 299 300 300 302 296 302 298 294 291 288 292 284 289 294 296 299 303 301 303 304 306 306 306 314 318 321 323 325 326 324 324 325 324 323 322 320 323 323 325 325 326 325
296 296 298 296 299 303 299 302 297 295 290 288 287 285 288 292 292 295 298 301 303 303 306 307 307 309 316 320 321 324 326 326 325 324 324 323 322 323 323 324 324 324 326 326
295 303 302 301 302 303 303 296 294 293 289 283 287 287 285 290 294 295 296 300 301 301 301 304 306 307 310 315 319 322 323 325 326 325 324 323 322 322 321 321 322 324 325 326
295 298 296 303 298 300 300 294 282 283 283 281 287 286 289 293 295 295 294 296 298 298 298 299 300 302 304 311 315 318 321 323 325 326 325 324 323 323 322 322 323 324 324 325
289 285 296 299 298 294 294 293 282 277 279 279 283 282 287 297 300 299 299 297 295 296 296 296 297 298 301 303 312 317 318 322 322 324 326 326 325 325 324 324 326 326 326 326
288 288 298 297 299 299 293 290 291 282 274 277 281 286 292 295 294 294 295 295 295 294 296 295 299 296 296 299 303 313 315 318 320 321 324 326 327 326 326 326 327 327 328 328
291 284 294 291 296 295 295 296 288 286 276 273 280 281 284 289 293 294 294 294 294 294 294 295 295 296 296 296 298 300 307 313 315 316 318 323 325 327 328 328 327 327 327 327
294 289 288 291 292 291 289 291 289 288 283 278 276 281 290 292 295 295 294 294 293 293 294 295 296 296 297 297 298 298 298 299 300 303 307 312 316 321 323 326 327 327 327 325
291 289 284 289 288 294 292 293 293 287 283 284 283 282 292 294 295 294 291 292 292 294 295 294 295 296 296 297 297 298 298 298 299 299 300 301 304 310 316 322 325 325 324 322
291 285 282 282 287 291 291 292 294 290 286 283 281 282 292 291 291 292 292 293 293 294 294 294 294 295 296 296 297 297 298 299 300 300 300 300 301 304 306 310 314 320 324 321
294 287 286 283 286 290 287 289 293 288 282 282 287 288 288 289 291 292 292 292 292 293 293 293 293 294 295 296 296 296 297 299 299 300 299 299 299 301 302 305 306 307 311 312
291 285 286 289 289 291 290 290 291 290 291 286 289 289 290 290 291 292 292 292 292 293 294 293 293 293 294 294 296 297 297 297 299 299 298 298 298 298 299 301 303 303 303 305
291 283 286 282 289 290 287 291 292 292 292 291 290 288 293 293 292 291 292 292 292 293 294 294 294 293 293 294 295 296 296 297 298 298 297 296 295 295 295 295 296 295 295 296
287 284 284 277 284 285 282 289 291 292 294 293 288 293 292 292 293 292 292 292 292 293 293 294 294 294 293 294 295 295 296 296 296 296 294 292 291 291 290 290 291 292 292 291
287 285 282 279 283 276 285 293 295 293 294 296 295 294 294 293 293 294 294 293 293 293 293 293 293 294 294 294 295 295 295 295 293 291 290 290 289 289 290 290 291 291 290 289
293 287 281 279 278 279 283 288 290 290 290 296 295 296 293 292 290 291 293 294 294 294 294 293 293 293 293 293 293 293 291 290 289 289 289 288 287 286 289 288 289 288 287 287
289 291 284 274 273 273 283 287 292 290 284 292 294 295 294 291 288 292 293 293 292 293 292 292 292 292 291 289 288 289 288 288 288 288 288 287 286 287 287 288 287 285 285 285
285 285 283 277 269 276 284 287 293 280 283 290 293 294 294 290 294 292 292 291 291 291 290 289 289 288 287 286 287 287 286 287 287 287 287 285 284 285 287 286 284 285 285 284
284 283 282 271 270 278 286 287 286 289 288 288 289 291 291 292 290 291 290 290 289 288 287 286 285 285 284 284 285 286 286 285 284 282 281 279 278 283 286 286 285 285 285 285
280 286 284 284 283 287 287 292 292 290 290 288 289 289 291 290 289 289 288 288 287 286 284 283 283 282 282 282 282 283 283 282 280 277 276 276 276 284 285 285 285 284 285 285
282 285 283 283 283 285 287 288 290 290 289 289 288 289 290 289 288 287 286 285 284 283 283 280 280 280 279 277 279 280 279 279 274 274 276 278 276 284 284 284 284 285 285 284
284 286 280 280 282 284 286 289 291 290 288 288 287 287 289 287 286 285 284 282 282 282 280 280 280 278 277 276 276 274 278 277 282 275 277 277 277 283 283 282 284 283 284 286
284 286 287 284 286 288 288 291 289 288 288 287 288 287 286 287 285 283 281 281 281 279 277 277 276 275 273 273 277 279 272 274 275 275 275 274 275 279 280 281 281 286 287 288
Wind_Speed
6 7 22 23 17 6 11 7 12 10 8 8 12 7 13 9 7 6 8 8 8 11 14 12 15 14 14 14 15 15 15 14 10 8 9 8 10 9 7 7 8 11 9 9
7 18 19 16 15 14 12 16 9 4 3 5 6 9 10 10 8 10 12 12 10 6 7 11 12 13 13 15 15 15 16 15 13 10 10 7 9 7 9 8 7 10 11 11
22 20 14 14 16 16 9 14 9 6 1 1 3 7 7 9 11 8 14 11 10 12 10 9 11 14 13 14 16 17 17 17 15 14 9 4 3 1 4 6 8 9 12 13
12 15 19 15 16 12 13 7 6 17 7 5 5 7 5 4 9 11 15 9 10 11 9 8 10 12 14 16 15 17 16 16 15 15 11 13 11 11 10 11 10 10 12 13
13 25 29 24 20 12 5 9 6 5 4 5 2 2 8 4 5 7 11 13 15 11 11 11 11 11 13 14 15 16 16 14 17 17 16 12 14 10 7 9 11 11 11 13
4 11 15 12 8 11 10 10 6 4 3 2 7 7 6 5 9 5 6 11 12 10 11 10 9 8 9 7 9 11 13 15 15 18 19 19 19 14 10 10 10 9 9 9
9 16 2 15 12 2 14 15 2 2 2 7 5 6 8 5 6 6 3 8 10 8 7 9 8 6 7 9 10 8 11 16 13 16 18 19 19 17 16 14 11 11 9 9
18 12 18 14 16 15 15 15 8 8 6 4 6 9 8 15 11 7 7 6 4 6 5 6 7 5 6 8 9 11 10 14 9 10 14 15 18 12 12 13 12 10 11 12
10 9 10 7 12 19 14 10 7 8 5 3 6 6 9 8 7 7 7 5 7 4 4 4 3 2 3 4 8 9 8 11 10 11 12 13 13 16 15 17 13 12 14 13
7 8 15 4 9 2 14 10 6 3 5 4 4 5 7 7 11 8 7 8 7 3 6 4 2 2 1 2 3 6 7 9 9 7 7 10 12 12 15 13 14 15 14 14
12 7 6 13 11 19 9 13 4 7 6 6 3 8 9 12 17 15 7 8 9 10 8 5 5 3 3 3 3 4 5 7 8 6 6 6 7 8 8 13 15 15 14 13
7 9 12 26 3 6 3 15 13 11 10 4 3 7 4 10 10 9 10 9 8 9 8 7 7 6 5 5 5 6 5 6 6 6 6 8 7 7 7 11 13 11 12 10
11 5 13 3 4 4 15 11 16 4 4 9 7 8 3 7 9 9 13 9 9 8 7 7 6 7 7 7 7 7 7 8 7 6 6 7 7 7 7 6 6 7 11 9
8 6 14 23 34 18 24 20 23 6 5 6 15 9 1 8 11 8 8 9 9 8 8 7 6 7 7 7 7 6 8 7 7 6 6 7 7 7 6 6 5 4 4 6
7 8 6 12 13 14 23 19 19 16 12 11 16 14 9 11 12 11 10 8 9 9 9 8 6 6 6 7 7 7 7 6 6 7 7 8 7 6 5 5 5 5 5 5
2 3 8 5 16 18 21 20 20 19 23 14 13 13 10 10 5 8 11 10 9 8 8 8 8 6 8 8 8 7 7 7 6 7 8 6 5 4 4 4 3 3 3 4
8 10 10 3 9 12 7 30 32 29 23 27 18 28 8 13 14 9 11 10 10 9 8 9 9 8 7 7 6 7 6 4 6 7 6 5 4 4 3 2 3 3 4 2
12 10 5 7 13 7 8 23 29 30 27 28 26 10 10 10 9 9 8 8 9 9 9 8 7 3 3 4 5 4 4 4 6 5 4 4 5 5 4 4 5 4 3 5
10 7 7 10 11 4 5 17 32 25 30 26 31 23 6 5 2 10 7 9 10 9 5 4 3 1 3 5 6 5 3 3 2 3 5 5 5 3 4 4 5 4 3 4
7 9 8 4 8 15 6 12 12 9 23 18 21 21 18 9 13 14 10 6 7 8 6 6 4 3 4 5 4 3 3 2 4 4 5 4 4 3 4 5 4 1 1 1
13 9 13 8 5 9 7 12 21 16 11 16 26 24 19 15 18 6 8 6 7 6 7 6 5 5 4 5 4 3 1 3 5 4 5 5 6 6 4 3 2 1 1 2
13 14 12 4 3 16 10 14 28 7 5 6 7 11 10 12 9 8 9 9 9 9 6 4 6 6 4 5 4 4 6 6 6 3 1 1 1 2 3 5 5 4 5 2
4 12 13 13 8 4 9 21 12 5 8 6 6 7 11 10 9 11 9 9 7 8 6 4 6 6 6 6 5 6 6 6 5 5 4 3 2 1 1 3 3 3 5 5
1 4 6 7 5 5 7 3 7 6 6 7 5 8 8 9 10 8 9 8 7 6 6 4 7 6 5 4 4 3 2 2 4 3 3 2 2 3 2 2 1 1 2 2
5 10 7 1 0 3 4 6 9 7 7 7 5 6 9 12 8 7 8 7 7 7 4 6 7 7 3 1 4 2 1 3 4 3 2 3 2 1 3 2 2 1 2 2
3 8 14 8 9 6 9 15 8 10 9 9 9 6 5 7 10 8 8 7 8 10 5 6 5 7 4 5 5 5 5 3 6 3 2 2 2 2 2 2 2 11 4 4
Wind_Direction
182 157 195 191 194 193 164 178 188 220 182 147 198 199 238 251 251 228 237 227 219 207 217 201 194 189 184 183 182 185 182 192 177 182 182 197 207 211 212 208 203 196 193 197
139 208 202 186 183 213 188 186 188 25 125 131 211 232 227 225 221 211 216 230 226 225 211 209 197 187 183 185 187 182 188 190 192 188 194 198 203 212 208 206 205 202 195 197
185 185 153 175 189 204 217 193 200 145 213 345 99 272 216 235 222 199 227 224 212 210 220 214 206 195 190 183 185 191 190 194 196 191 188 185 163 177 185 210 215 209 196 197
194 164 165 173 198 199 198 218 156 146 152 196 166 271 292 218 232 227 222 212 215 214 223 210 203 208 199 198 187 192 191 192 196 191 189 198 206 205 209 207 209 207 200 200
190 174 175 178 191 174 162 111 110 100 103 100 224 91 272 270 254 246 224 222 228 208 207 215 211 209 214 199 193 192 192 190 192 192 196 198 212 217 211 205 206 207 204 202
142 158 157 180 134 171 143 100 52 68 104 254 198 159 261 210 220 233 225 226 220 222 221 228 231 204 207 201 208 194 192 201 195 196 200 202 209 209 205 205 206 208 206 204
144 166 178 147 126 325 147 140 167 166 152 230 253 187 234 220 205 173 147 191 205 209 206 227 232 227 214 192 195 192 195 209 199 200 204 208 212 210 209 207 208 202 203 210
158 178 165 161 174 177 173 182 164 163 168 208 287 225 250 219 236 214 187 175 176 122 160 164 175 183 218 214 203 196 198 216 206 203 210 213 217 216 217 214 212 209 208 210
142 182 193 173 145 150 183 190 135 92 28 100 210 283 306 256 232 191 182 163 206 202 192 208 191 184 241 221 212 204 202 214 215 212 216 218 214 217 217 219 214 211 213 212
159 115 177 170 117 50 180 151 127 14 152 236 266 262 230 210 230 216 205 192 217 211 156 110 138 206 246 235 235 215 219 221 223 221 220 228 227 224 226 224 222 221 223 217
134 114 162 150 191 175 153 182 161 119 153 156 165 250 214 194 200 216 193 187 167 156 166 177 191 201 221 262 244 239 242 242 251 246 246 238 237 228 220 224 222 221 220 210
188 130 157 185 316 208 184 188 179 177 193 205 167 268 251 201 204 155 168 157 157 163 182 188 190 201 225 245 258 253 259 254 252 253 249 243 239 241 247 240 236 231 230 220
175 135 128 132 349 348 199 193 188 101 92 194 147 247 264 134 130 151 151 164 169 170 179 194 197 216 226 237 234 229 231 237 243 243 245 253 251 244 245 251 268 243 229 227
94 142 178 187 190 163 188 194 190 133 163 148 213 193 270 167 155 159 168 171 181 185 200 207 220 231 239 239 237 232 242 231 235 231 235 249 254 257 263 265 258 267 267 209
116 142 107 148 147 169 186 184 192 206 200 185 218 217 201 188 179 177 171 182 182 200 207 209 217 231 245 255 253 249 254 241 219 218 222 229 230 239 257 262 266 274 275 255
141 136 121 48 154 168 177 183 185 206 220 228 230 254 162 208 171 168 191 186 197 207 228 250 255 247 244 246 247 239 243 239 212 221 233 243 238 231 230 237 249 284 283 270
123 137 138 155 134 123 172 194 193 204 207 210 207 231 170 198 207 189 194 194 195 211 228 241 244 251 260 261 249 249 254 244 220 226 232 236 229 230 238 265 254 256 277 279
138 119 98 135 125 186 234 187 202 204 209 215 226 213 177 178 191 202 212 195 219 215 224 236 241 261 320 343 331 305 281 247 232 239 232 231 220 223 220 233 246 243 237 245
156 115 88 150 191 270 242 196 190 190 223 215 223 221 192 144 145 260 196 197 209 210 191 128 95 62 4 16 344 324 318 307 290 255 255 260 242 243 235 236 242 239 223 218
63 110 120 121 153 205 203 169 166 92 260 200 220 227 218 156 225 241 190 192 137 127 133 130 101 96 59 6 358 30 353 338 273 269 256 232 224 202 221 234 236 255 280 308
155 161 182 184 200 277 239 159 140 167 256 190 199 210 201 202 217 162 136 128 142 140 125 104 89 79 29 351 1 64 62 309 284 253 228 197 189 193 193 166 130 123 89 123
159 159 183 102 108 252 179 145 168 161 162 184 189 202 181 198 152 159 159 149 139 133 118 86 104 89 38 19 22 29 23 344 329 329 358 320 201 174 164 166 145 143 139 149
158 182 169 185 195 239 183 167 191 129 144 192 155 164 156 145 164 153 155 148 145 121 105 80 99 82 39 28 47 44 352 344 360 16 5 1 331 276 160 154 173 155 158 162
345 148 154 101 241 177 186 78 141 164 156 142 140 133 133 139 145 147 142 141 125 120 114 104 101 86 64 25 58 80 330 352 59 28 18 31 27 358 18 18 42 122 182 161
184 150 148 121 65 69 232 198 171 137 126 125 112 142 144 136 152 138 133 129 123 123 127 125 132 120 124 182 72 14 30 106 87 78 59 48 64 25 24 26 358 344 305 208
198 175 190 215 158 161 200 212 142 141 164 161 139 122 116 138 139 123 133 144 141 137 136 122 111 103 75 50 43 13 352 105 119 106 81 112 119 121 120 95 31 25 344 254